Regional Weather Roundup
Issued by NWS

Home | Current Version | Previous Version | Graphics & Text | Print | Product List | Glossary On
Versions: 1 2 3 4 5 6 7 8 9 10 11 12 13 14 15 16 17 18 19 20 21 22 23 24 25 26 27 28 29 30 31 32 33 34 35 36 37 38 39 40 41 42 43 44 45 46 47 48 49 50
930
ASUS45 KTFX 251110
RWRMT
MONTANA REGIONAL WEATHER ROUNDUP
NATIONAL WEATHER SERVICE GREAT FALLS MT
500 AM MDT SUN SEP 25 2016

NOTE: "FAIR" INDICATES FEW OR NO CLOUDS BELOW 12000 FEET WITH NO
SIGNIFICANT WEATHER AND/OR OBSTRUCTIONS TO VISIBILITY.

MTZ001>007-043-251200-
WEST OF THE DIVIDE

CITY           SKY/WX    TMP DP  RH WIND       PRES   REMARKS
KALISPELL      CLOUDY    41  38  89 CALM      30.40R
MISSOULA       PTCLDY    37  35  92 CALM      30.46S
BUTTE          CLEAR     30  27  88 CALM      30.46R
MULLAN PASS    CLOUDY    41  32  70 W3        30.44R
ANACONDA         N/A     36  30  80 SW3       30.44S
DEER LODGE       N/A     30  27  86 CALM      30.48S
EUREKA           N/A     46  37  71 CALM      30.37S
HAMILTON         N/A     43  34  70 S5        30.46R
LIBBY            N/A     41  37  87 CALM      30.40R
RONAN            N/A     36  32  85 CALM      30.42R
$$

MTZ008-052>055-251200-
SOUTHWEST MONTANA

CITY           SKY/WX    TMP DP  RH WIND       PRES   REMARKS
BOZEMAN        CLEAR     36  32  85 S8        30.43R WCI  30
DILLON         CLEAR     36  30  79 SW10      30.42F WCI  28
W YELLOWSTONE    N/A     25  25 100 SW3       30.47R
ENNIS          CLEAR     36  30  80 CALM      30.48R
THREE FORKS      N/A     33  11  40 CALM      30.36R
TWIN BRIDGES     N/A     32  26  78 SE3       30.37S
$$

MTZ009-010-012-014-046-048-049-054-251200-
EAST SLOPES AND CENTRAL MONTANA

CITY           SKY/WX    TMP DP  RH WIND       PRES   REMARKS
CUT BANK       PTCLDY    41  34  76 W10       30.32R
GREAT FALLS    CLEAR     40  34  79 SW13      30.35R
MALMSTROM AFB  CLEAR     42  36  81 SW9       30.35R
HELENA         CLEAR     45  33  63 W7        30.40R
AUGUSTA        PTSUNNY   43  33  67 SW6       30.34R
BOWMANS CRNR   PTSUNNY   39  33  77 S12       30.35R WCI  32
CHOTEAU          N/A     45  34  65 SW6       30.34F
FAIRFIELD        N/A     41  32  70 S3        30.33S
POWER            N/A     36  31  84 SW5       30.32S
RAYNESFORD       N/A     42  33  72 E6        30.35R
$$

MTZ011-013-016-021-045-047-050-051-251200-
NORTH CENTRAL MONTANA

CITY           SKY/WX    TMP DP  RH WIND       PRES   REMARKS
HAVRE          CLEAR     39  38  96 W7        30.30R
LEWISTOWN      CLEAR     37  35  92 SE7       30.35R WCI  32
N BAR RANCH    MOCLDY    41  36  81 W8        30.37R
CHINOOK          N/A     37  37 100 CALM      30.30R
DENTON           N/A     41  37  84 W15       30.30R
GEYSER         PTSUNNY   43  33  67 SW6       30.34R
GRASS RANGE      N/A     42  39  89 SW10      30.31R
JUDITH GAP       N/A     39  34  80 S9        30.36R
ROY            PTSUNNY   46  41  84 MISG      30.31R
STANFORD         N/A     45  34  65 W12       30.34R
WINIFRED         N/A     45  38  79 MISG      30.32R
$$

MTZ017>020-022>027-061-062-251200-
NORTHEAST MONTANA

CITY           SKY/WX    TMP DP  RH WIND       PRES   REMARKS
GLASGOW        CLEAR     38  34  85 W3        30.24R
JORDAN           N/A     38  36  92 W7        30.28R
SIDNEY         CLEAR     46  39  76 NW15      30.14
WOLF POINT     CLEAR     46  37  71 W15       30.21R
PLENTYWOOD       N/A     43  39  87 W13       30.11R
POPLAR           N/A     45  37  76 W14       30.17R
SCOBEY           N/A     43  32  65 W17       30.14
$$

MTZ028>42-056>058-251200-
SOUTHCENTRAL AND SOUTHEAST MONTANA

CITY           SKY/WX    TMP DP  RH WIND       PRES   REMARKS
BAKER          CLEAR     43  43 100 W17       30.19R
BILLINGS       MOCLDY    51  37  58 NW15      30.34R
LIVINGSTON     CLEAR     41  32  70 W10       30.40R
MILES CITY     CLEAR     46  38  73 NW13      30.26R
BIG TIMBER     CLEAR     45  32  61 SW14      30.39S
EKALAKA          N/A     42  37  82 W13       30.18R
FORSYTH          N/A     45  45 100 W7        30.29R
HARLOWTON        N/A     40  34  80 W16       30.36R
LAUREL           N/A     50  36  58 W2        30.30R
ROUNDUP          N/A     43  36  76 S5        30.22R
$$

REGIONAL REPORTS...DAKOTAS

CITY           SKY/WX    TMP DP  RH WIND       PRES   REMARKS
WILLISTON      CLOUDY    47  40  76 NW20G29   30.07R
MINOT          LGT RAIN  51  49  92 W23G35    29.88R
DICKINSON      PTCLDY    46  42  86 NW21G30   30.04R
CROSBY           N/A     46  46 100 NW18G24   30.04R
WATFORD CITY     N/A     46  41  81 NW18G30   30.06R
BISMARCK       LGT RAIN  51  50  96 NW22G37   29.90R FOG
GRAND FORKS    CLEAR     55  51  86 S10       29.70S
FARGO          CLEAR     55  48  77 S9        29.77S
BUFFALO SD       N/A     46  40  79 W22       30.11R
RAPID CITY     CLEAR     51  37  58 NW29G40   30.21R
$$

REGIONAL REPORTS...WYOMING/IDAHO/WASHINGTON

CITY           SKY/WX    TMP DP  RH WIND       PRES   REMARKS
GILLETTE       CLOUDY    45  44  97 W8        30.34R
SHERIDAN       CLOUDY    49  39  68 NW7       30.34R
BUFFALO WY     CLOUDY    46  36  68 N9        30.35R
CODY           CLEAR     37  36  93 S6        30.40S
YELLOWSTONE LA   N/A     26  25  96 CALM      30.49S
IDAHO FALLS    CLEAR     39  34  82 SW3       30.45R
SALMON         CLOUDY    34  30  86 CALM      30.49R
BOISE          CLEAR     47  36  65 CALM      30.40S
SPOKANE        CLOUDY    52  35  52 SE5       30.40R
$$

REGIONAL REPORTS...ALBERTA

CITY           SKY/WX    TMP DP  RH WIND       PRES   REMARKS
EDMONTON       PTCLDY    36  28  75 W8        30.20S WCI  29
CALGARY        PTCLDY    37  27  65 NE3       30.27S
LETHBRIDGE     CLEAR     37  32  81 SW5       30.28S
MEDICINE HAT   CLEAR     37  36  93 S3        30.26S
WATERTON GATE    N/A     48  30  49 SW13G21     N/A
CARDSTON         N/A     39  32  75 SE3         N/A
MILK RIVER       N/A     37  34  87 NW13        N/A  WCI  29
$$

REGIONAL REPORTS...SASKATCHEWAN

CITY           SKY/WX    TMP DP  RH WIND       PRES   REMARKS
SWIFT CURRENT  CLEAR     37  32  81 W12       30.20R WCI  30
REGINA         PTCLDY    43  39  87 NW10      30.07R
SASKATOON      CLEAR     39  37  93 W12       30.11R WCI  32
CYPRESS HILLS    N/A     39  32  75 NW2         N/A
VAL MARIE        N/A     37  32  81 NW8         N/A  WCI  31
ROCKGLEN         N/A     39  34  81 W13G18      N/A  WCI  32
ASSINIBOIA       N/A     37  32  81 W9          N/A  WCI  31
$$




USA.gov is the U.S. government's official web portal to all federal, state and local government web resources and services.